Regional Weather Roundup
Issued by NWS Kansas City/Pleasant Hill, MO

Home | Current Version | Previous Version | Graphics & Text | Print | Product List | Glossary Off
Versions: 1 2 3 4 5 6 7 8 9 10 11 12 13 14 15 16 17 18 19 20 21 22 23 24 25 26 27 28 29 30 31 32 33 34 35 36 37 38 39 40 41 42 43 44 45 46 47 48 49 50

000
ASUS43 KEAX 230511
RWREAX

WEATHER ROUNDUP FOR EASTERN KANSAS AND NORTHWEST MISSOURI
NATIONAL WEATHER SERVICE KANSAS CITY/PLEASANT HILL MO
1200 AM CDT SAT MAY 23 2015

KSZ040-057-103>105-MOZ028-029-037-043-230600-
...KANSAS CITY METROPOLITAN AREA...

CITY           SKY/WX    TMP DP  RH WIND       PRES   REMARKS
K.C. INTL      CLOUDY    61  51  70 SE9       30.21S
K.C. DOWNTOWN  CLOUDY    63  51  65 SE8       30.20F
LEES SUMMIT    CLOUDY    62  51  67 SE6       30.22S
OLATHE - IXD   CLOUDY    60  53  77 SE10      30.21F
OLATHE - OJC   CLOUDY    60  53  77 SE9       30.20F
LAWRENCE       CLOUDY    60  52  74 SE7       30.20F

$$

MOZ001>008-011>017-020>025-030>033-038>040-044>046-053-054-230600-
...NORTHERN AND CENTRAL MISSOURI...

CITY           SKY/WX    TMP DP  RH WIND       PRES   REMARKS
ST. JOSEPH     CLOUDY    60  51  72 E3        30.21F
MOSBY          CLOUDY    61  52  72 SE3       30.21F
WARRENSBURG    CLOUDY    61  52  72 SE7       30.22S
WHITEMAN AFB   CLOUDY    62  54  75 SE3       30.22S
CLINTON        CLOUDY    63  55  77 SE3       30.24R
SEDALIA        CLOUDY    63  53  70 S8        30.24S
WARSAW         NOT AVBL
CHILLICOTHE      N/A     60  55  83 CALM      30.23F
KIRKSVILLE     CLOUDY    54  53  97 CALM      30.24F

$$

MOZ041-047>049-056>058-063>065-088>090-097-230600-
...EASTERN AND SOUTHERN MISSOURI...

CITY           SKY/WX    TMP DP  RH WIND       PRES   REMARKS
ST. LOUIS INTL CLOUDY    67  52  58 CALM      30.25F
SPIRIT OF STL  CLOUDY    60  58  92 W3        30.25S
COLUMBIA       CLOUDY    62  53  72 E6        30.23F
JEFFERSON CITY CLOUDY    62  55  77 SE5       30.23F
ROLLA          CLOUDY    61  52  72 SE6       30.23F
OSAGE BEACH    CLOUDY    61  52  72 CALM      30.24F
SPRINGFIELD    CLOUDY    60  49  66 SE14      30.22S
BRANSON        PTCLDY    55  48  76 CALM      30.25S
JOPLIN         CLOUDY    61  50  67 SE8       30.20F
WEST PLAINS    CLOUDY    58  48  69 CALM      30.26S

$$

IAZ060-094-KSZ022-034>040-054-083-096-NEZ052-066-093-230600-
...KANSAS...SOUTHEAST NEBRASKA AND IOWA...

CITY           SKY/WX    TMP DP  RH WIND       PRES   REMARKS
TOPEKA         CLOUDY    61  52  72 E7        30.19F
MANHATTAN      CLOUDY    59  50  72 SE3       30.18S
EMPORIA        CLOUDY    56  53  90 E6        30.17F
CHANUTE        CLOUDY    60  52  74 E6        30.18F
WICHITA        CLOUDY    55  52  89 SE10      30.16S
OMAHA          CLOUDY    60  49  66 S8        30.20S
LINCOLN        CLOUDY    60  44  55 SE13      30.18F
FALLS CITY     MOCLDY    58  50  75 SE3       30.19F
LAMONI           N/A     59  52  77 S5        30.22F
DES MOINES     MOCLDY    61  48  62 S3        30.21F

$$



USA.gov is the U.S. government's official web portal to all federal, state and local government web resources and services.